SM6KNE Weather Reports


Display with metric or nautical units.
time (UTC)temp
F
wind
direction
speed
MPH
gust
MPH
rain 1hr
in
rain 24hr
in
rain mn
in
humidity
%
barometer
mb
20260507141522 76 285 8.0 10.0 0.00 0.00 0.00 19 1017.1
20260507140521 79 267 9.0 11.0 0.00 0.00 0.00 19 1017.1
20260507135539 79 289 6.0 7.0 0.00 0.00 0.00 20 1017.1
20260507134516 78 276 4.0 7.0 0.00 0.00 0.00 20 1017.1
20260507133517 77 274 3.0 11.0 0.00 0.00 0.00 20 1017.1
20260507132523 81 273 3.0 6.0 0.00 0.00 0.00 22 1017.1
20260507131524 79 282 2.0 4.0 0.00 0.00 0.00 23 1017.1
20260507130523 76 272 3.0 7.0 0.00 0.00 0.00 23 1017.1
20260507125527 76 269 10.0 11.0 0.00 0.00 0.00 24 1017.1
20260507124525 77 256 4.0 11.0 0.00 0.00 0.00 24 1017.1
20260507123524 75 32 2.0 4.0 0.00 0.00 0.00 25 1017.1
20260507122532 73 267 7.0 11.0 0.00 0.00 0.00 25 1017.1
20260507121526 72 299 5.0 10.0 0.00 0.00 0.00 27 1017.1
20260507120523 74 278 6.0 6.0 0.00 0.00 0.00 27 1017.1
20260507115523 76 338 0.0 2.0 0.00 0.00 0.00 26 1017.1
20260507114524 73 293 4.0 6.0 0.00 0.00 0.00 28 1017.1
20260507113544 74 272 5.0 12.0 0.00 0.00 0.00 28 1017.1
20260507112523 74 300 0.0 1.0 0.00 0.00 0.00 29 1017.1
20260507111523 74 0.0 0.0 0.00 0.00 0.00 29 1017.1
20260507110524 71 293 2.0 3.0 0.00 0.00 0.00 30 1017.1
20260507105523 66 293 0.0 2.0 0.00 0.00 0.00 31 1017.1
20260507104528 69 330 5.0 9.0 0.00 0.00 0.00 32 1017.1
20260507103523 69 298 4.0 6.0 0.00 0.00 0.00 32 1017.1
20260507102524 67 248 1.0 3.0 0.00 0.00 0.00 33 1017.1
20260507101524 67 261 4.0 7.0 0.00 0.00 0.00 33 1017.1
20260507100516 65 275 9.0 11.0 0.00 0.00 0.00 38 1016.1
20260507095544 64 258 3.0 5.0 0.00 0.00 0.00 38 1016.1
20260507094523 65 315 0.0 1.0 0.00 0.00 0.00 42 1016.1
20260507093523 63 293 0.0 2.0 0.00 0.00 0.00 45 1016.1
20260507092543 61 259 4.0 6.0 0.00 0.00 0.00 48 1016.1
20260507091524 60 0.0 0.0 0.00 0.00 0.00 48 1016.1
20260507090523 59 293 0.0 2.0 0.00 0.00 0.00 50 1016.1
20260507085524 57 268 3.0 6.0 0.00 0.00 0.00 51 1016.1
20260507084524 57 267 1.0 4.0 0.00 0.00 0.00 52 1016.1
20260507083524 55 23 1.0 3.0 0.00 0.00 0.00 54 1016.1
20260507082523 54 0.0 0.0 0.00 0.00 0.00 54 1016.1
20260507081521 53 264 6.0 8.0 0.00 0.00 0.00 55 1016.1
20260507080519 52 256 3.0 5.0 0.00 0.00 0.00 56 1016.1
20260507075517 51 256 2.0 6.0 0.00 0.00 0.00 59 1016.1
20260507074603 50 248 1.0 4.0 0.00 0.00 0.00 62 1016.1
20260507073523 49 248 1.0 2.0 0.00 0.00 0.00 63 1016.1
20260507072523 48 254 4.0 9.0 0.00 0.00 0.00 64 1016.1
20260507071524 47 253 4.0 6.0 0.00 0.00 0.00 66 1016.1
20260507070527 46 248 1.0 5.0 0.00 0.00 0.00 68 1016.1
20260507065519 45 249 4.0 6.0 0.00 0.00 0.00 69 1016.1
20260507064523 43 293 0.0 1.0 0.00 0.00 0.00 70 1016.1
20260507063523 42 0.0 0.0 0.00 0.00 0.00 71 1016.1
20260507062538 40 0.0 0.0 0.00 0.00 0.00 71 1016.1
20260507061523 39 0.0 0.0 0.00 0.00 0.00 70 1016.1
20260507060524 37 0.0 0.0 0.00 0.00 0.00 70 1016.1
20260507055519 36 0.0 0.0 0.00 0.00 0.00 69 1016.1
20260507054523 35 0.0 0.0 0.00 0.00 0.00 69 1016.1
20260507053523 34 0.0 0.0 0.00 0.00 0.00 69 1015.1
20260507052523 33 0.0 0.0 0.00 0.00 0.00 68 1015.1
20260507051524 32 0.0 0.0 0.00 0.00 0.00 68 1015.1
20260507050523 32 0.0 0.0 0.00 0.00 0.00 68 1015.1
20260507045523 32 0.0 0.0 0.00 0.00 0.00 68 1015.1
20260507044524 31 0.0 0.0 0.00 0.00 0.00 67 1015.1
20260507043524 31 0.0 0.0 0.00 0.00 0.00 67 1015.1
20260507042516 30 0.0 0.0 0.00 0.00 0.00 67 1015.1
20260507041543 30 0.0 0.0 0.00 0.00 0.00 67 1015.1
20260507040523 30 0.0 0.0 0.00 0.00 0.00 66 1015.1
20260507035523 29 0.0 0.0 0.00 0.00 0.00 66 1015.1
20260507034604 30 0.0 0.0 0.00 0.00 0.00 66 1015.1
20260507033523 29 0.0 0.0 0.00 0.00 0.00 65 1015.1
20260507032523 30 0.0 0.0 0.00 0.00 0.00 65 1015.1
20260507031522 30 0.0 0.0 0.00 0.00 0.00 65 1015.1
20260507030547 30 0.0 0.0 0.00 0.00 0.00 65 1015.1
20260507025604 30 0.0 0.0 0.00 0.00 0.00 64 1015.1
20260507024521 30 0.0 0.0 0.00 0.00 0.00 64 1015.1
20260507023522 30 0.0 0.0 0.00 0.00 0.00 64 1015.1
20260507022522 30 0.0 0.0 0.00 0.00 0.00 63 1015.1
20260507021518 31 0.0 0.0 0.00 0.00 0.00 63 1015.1
20260507020517 31 0.0 0.0 0.00 0.00 0.00 63 1015.1
20260507015523 31 0.0 0.0 0.00 0.00 0.00 63 1014.9
20260507014524 31 0.0 0.0 0.00 0.00 0.00 62 1014.1
20260507013523 32 0.0 0.0 0.00 0.00 0.00 62 1014.1
20260507012524 32 0.0 0.0 0.00 0.00 0.00 61 1014.1
20260507011523 32 0.0 0.0 0.00 0.00 0.00 61 1014.1
20260507010523 32 0.0 0.0 0.00 0.00 0.00 60 1014.1
20260507005523 33 0.0 0.0 0.00 0.00 0.00 60 1014.1
20260507004523 33 0.0 0.0 0.00 0.00 0.00 60 1014.1
20260507003524 33 0.0 0.0 0.00 0.00 0.00 60 1014.1
20260507002523 33 0.0 0.0 0.00 0.00 0.00 59 1014.1
20260507001524 33 0.0 0.0 0.00 0.00 0.00 58 1014.1
20260507000544 34 0.0 0.0 0.00 0.00 0.00 58 1014.1
20260506235524 34 0.0 0.0 0.00 0.00 0.00 57 1014.1
20260506234523 34 0.0 0.0 0.00 0.00 0.00 56 1014.1
20260506233523 35 0.0 0.0 0.00 0.00 0.00 56 1014.1
20260506232523 35 0.0 0.0 0.00 0.00 0.00 56 1014.1
20260506231516 36 0.0 0.0 0.00 0.00 0.00 56 1014.1
20260506230523 36 0.0 0.0 0.00 0.00 0.00 55 1014.1
20260506225523 36 0.0 0.0 0.00 0.00 0.00 55 1014.1
20260506224525 36 0.0 0.0 0.00 0.00 0.00 55 1014.1
20260506223544 37 0.0 0.0 0.00 0.00 0.00 54 1013.1
20260506222523 37 0.0 0.0 0.00 0.00 0.00 53 1013.1
20260506221523 38 0.0 0.0 0.00 0.00 0.00 52 1013.1
20260506220519 39 0.0 0.0 0.00 0.00 0.00 51 1013.1
20260506215523 39 0.0 0.0 0.00 0.00 0.00 50 1013.1
20260506214523 39 0.0 0.0 0.00 0.00 0.00 51 1013.1
20260506213517 40 0.0 0.0 0.00 0.00 0.00 50 1013.1
20260506212523 40 0.0 0.0 0.00 0.00 0.00 49 1013.1
20260506211523 41 0.0 0.0 0.00 0.00 0.00 48 1013.1
20260506210535 41 0.0 0.0 0.00 0.00 0.00 49 1013.1
20260506205523 41 0.0 0.0 0.00 0.00 0.00 48 1013.1
20260506204543 42 0.0 0.0 0.00 0.00 0.00 46 1013.1
20260506203600 43 0.0 0.0 0.00 0.00 0.00 44 1012.1
20260506202545 44 0.0 0.0 0.00 0.00 0.00 43 1012.1
20260506201523 45 0.0 0.0 0.00 0.00 0.00 42 1012.1
20260506200523 45 0.0 0.0 0.00 0.00 0.00 41 1012.1
20260506195523 46 0.0 0.0 0.00 0.00 0.00 40 1012.1
20260506194524 47 0.0 0.0 0.00 0.00 0.00 38 1012.1
20260506193523 48 0.0 0.0 0.00 0.00 0.00 35 1012.1
20260506192523 49 0.0 0.0 0.00 0.00 0.00 34 1012.1
20260506191524 50 0.0 0.0 0.00 0.00 0.00 33 1012.1
20260506190523 50 254 2.0 4.0 0.00 0.00 0.00 32 1012.1
20260506185523 51 278 2.0 4.0 0.00 0.00 0.00 31 1012.1
20260506184523 52 288 2.0 5.0 0.00 0.00 0.00 31 1012.1
20260506183543 53 293 1.0 5.0 0.00 0.00 0.00 30 1012.1
20260506182602 54 281 3.0 6.0 0.00 0.00 0.00 29 1012.1
20260506181524 55 248 0.0 1.0 0.00 0.00 0.00 28 1012.1
20260506180543 55 293 1.0 3.0 0.00 0.00 0.00 27 1011.1
20260506175520 56 275 5.0 6.0 0.00 0.00 0.00 27 1011.1
20260506174524 56 278 6.0 9.0 0.00 0.00 0.00 27 1011.1
20260506173523 57 278 7.0 9.0 0.00 0.00 0.00 27 1011.1
20260506172518 59 282 7.0 9.0 0.00 0.00 0.00 26 1011.1
20260506171523 61 266 6.0 9.0 0.00 0.00 0.00 24 1011.1
20260506170523 62 270 8.0 10.0 0.00 0.00 0.00 22 1011.1
20260506165516 65 281 6.0 8.0 0.00 0.00 0.00 22 1011.1
20260506164523 65 262 7.0 8.0 0.00 0.00 0.00 22 1011.1
20260506163523 66 269 7.0 9.0 0.00 0.00 0.00 21 1011.1
20260506162523 67 265 7.0 9.0 0.00 0.00 0.00 20 1011.1
20260506161544 68 269 8.0 10.0 0.00 0.00 0.00 20 1011.1
20260506160523 69 256 8.0 11.0 0.00 0.00 0.00 21 1011.1
20260506155544 69 261 6.0 9.0 0.00 0.00 0.00 21 1011.1
20260506154523 68 272 9.0 10.0 0.00 0.00 0.00 20 1011.1
20260506153524 66 263 8.0 11.0 0.00 0.00 0.00 20 1011.1
20260506152523 66 248 10.0 12.0 0.00 0.00 0.00 20 1011.1
20260506151523 70 252 8.0 9.0 0.00 0.00 0.00 20 1011.1
20260506150524 67 270 10.0 12.0 0.00 0.00 0.00 20 1011.1
20260506145522 69 258 9.0 13.0 0.00 0.00 0.00 19 1011.1
20260506144520 71 284 7.0 9.0 0.00 0.00 0.00 20 1011.1
20260506143519 70 255 11.0 13.0 0.00 0.00 0.00 19 1011.1
20260506142537 70 285 5.0 8.0 0.00 0.00 0.00 19 1011.1